Flag for Canada Weather past 2 weeks in Dryden, Ontario, Canada

52 °F


Feels Like: 52 °F
Forecast: N/A
Wind: 2 mph from North

Location: Dryden Airport

Current Time: Oct 4, 2015 at 4:49:12 PM

Latest Report: Oct 4, 2015 at 4:00 PM

Visibility: 9 mi

Pressure: 30.27 "Hg

Humidity: 58%

Dew point: 37 °F

Location of DrydenLocation

Historic Weather in Dryden — Graph


Dryden temperature yesterday

Maximum temperature yesterday: 59 °F (at 4:00 PM)
Minimum temperature yesterday: 37 °F (at 5:00 AM)
Average temperature yesterday: 47 °F

Past Weeks' High & Low Weather Summary

High79 °F (Sep 21, 5:00 PM)100% (Oct 4, 7:04 AM)30.70 "Hg (Oct 4, 7:04 AM)
Low34 °F (Sep 29, 6:00 AM)27% (Oct 2, 4:00 PM)29.59 "Hg (Sep 21, 6:00 PM)
Average54 °F68%30.21 "Hg
* Reported Sep 19 3:00 PM — Oct 4 3:00 PM, Dryden, Weather by CustomWeather, © 2015

Note: Actual official high and low records may vary slightly from our data, if they occured in-between our weather recording intervals... More about our weather records


Dryden weather history for previous 24 hours

Time TempWeatherWind HumidityBarometerVisibility
3:00 PM
Sun, Oct 4
52 °FMostly cloudy.7 mph58%30.29 "Hg9 mi
2:00 PM52 °FBroken clouds.14 mph58%30.31 "Hg9 mi
1:00 PM50 °FPassing clouds.5 mph62%30.33 "Hg9 mi
12:00 PM48 °FPartly sunny.6 mph62%30.35 "Hg9 mi
11:54 AM48 °FPartly sunny.6 mph62%30.35 "Hg9 mi
11:00 AM48 °FScattered clouds.13 mph66%30.36 "Hg9 mi
10:00 AM45 °FScattered clouds.9 mph76%30.38 "Hg9 mi
9:00 AM37 °FPartly sunny.3 mph93%30.39 "Hg9 mi
8:00 AM36 °FPartly sunny.5 mph100%30.40 "Hg9 mi
7:47 AM36 °FPartly sunny.5 mph93%30.40 "Hg9 mi
7:04 AM34 °FFog.5 mph100%30.40 "Hg1 mi
7:03 AM36 °FFog.5 mph93%30.40 "Hg1 mi
6:00 AM36 °FPassing clouds.5 mph87%30.41 "Hg9 mi
5:00 AM36 °FClear.3 mph87%30.40 "Hg9 mi
4:00 AM36 °FClear.2 mph93%30.41 "Hg9 mi
3:00 AM37 °FClear.2 mph87%30.42 "Hg9 mi
2:00 AM39 °FClear.8 mph81%30.42 "Hg9 mi
1:00 AM39 °FClear.8 mph81%30.43 "Hg9 mi
12:00 AM41 °FClear.12 mph81%30.44 "Hg9 mi
11:00 PM
Sat, Oct 3
43 °FClear.9 mph71%30.43 "Hg9 mi
10:00 PM45 °FClear.9 mph61%30.42 "Hg9 mi
9:00 PM46 °FClear.9 mph57%30.43 "Hg9 mi
8:00 PM48 °FClear.9 mph54%30.42 "Hg9 mi
7:00 PM50 °FClear.7 mph54%30.42 "Hg9 mi
6:00 PM55 °FSunny.7 mph44%30.43 "Hg9 mi
5:00 PM57 °FSunny.12 mph41%30.43 "Hg9 mi
4:00 PM59 °FSunny.12 mph36%30.45 "Hg9 mi
Weather by CustomWeather, © 2015

See weather overviewHow to use our weather pages